Previsão horária em Celinnyy

Hoje, 25 Julho, Domingo

Tempo Temperatura Precipitação Vento Pressão Humidade
00:00 +15°C° 0 mm 1 m/s 699 mmHg 77%
01:00 +15°C° 0 mm 1 m/s 699 mmHg 79%
02:00 +15°C° 0 mm 1 m/s 699 mmHg 80%
03:00 +14°C° 0 mm 1 m/s 699 mmHg 81%
04:00 +14°C° 0 mm 1 m/s 699 mmHg 83%
05:00 +15°C° 0 mm 0 m/s 699 mmHg 75%
06:00 +17°C° 0 mm 0 m/s 699 mmHg 67%
07:00 +18°C° 0 mm 0 m/s 699 mmHg 61%
08:00 +20°C° 0 mm 0 m/s 699 mmHg 55%
09:00 +22°C° 0 mm 0 m/s 699 mmHg 48%
10:00 +26°C° 0 mm 1 m/s 699 mmHg 42%
11:00 +26°C° 0 mm 1 m/s 699 mmHg 41%
12:00 +26°C° 0 mm 1 m/s 699 mmHg 41%
13:00 +25°C° 0 mm 1 m/s 699 mmHg 43%
14:00 +25°C° 0 mm 1 m/s 699 mmHg 43%
15:00 +25°C° 0 mm 2 m/s 699 mmHg 42%
16:00 +26°C° 0 mm 2 m/s 699 mmHg 42%
17:00 +24°C° 0 mm 2 m/s 699 mmHg 47%
18:00 +23°C° 0 mm 2 m/s 699 mmHg 52%
19:00 +20°C° 0 mm 3 m/s 699 mmHg 57%
20:00 +19°C° 0 mm 2 m/s 699 mmHg 60%
21:00 +19°C° 0 mm 2 m/s 700 mmHg 63%
22:00 +18°C° 0 mm 2 m/s 700 mmHg 66%
23:00 +18°C° 0 mm 1 m/s 700 mmHg 68%

Amanhã, 26 Julho, Segunda-feira

Tempo Temperatura Precipitação Vento Pressão Humidade
00:00 +18°C° 0 mm 1 m/s 700 mmHg 69%
01:00 +16°C° 0 mm 1 m/s 700 mmHg 71%
02:00 +18°C° 0 mm 1 m/s 700 mmHg 70%
03:00 +16°C° 0 mm 0 m/s 699 mmHg 69%
04:00 +16°C° 0 mm 0 m/s 699 mmHg 69%
05:00 +16°C° 0 mm 0 m/s 699 mmHg 66%
06:00 +17°C° 0 mm 0 m/s 700 mmHg 64%
07:00 +18°C° 0 mm 0 m/s 700 mmHg 62%
08:00 +21°C° 0 mm 1 m/s 700 mmHg 59%
09:00 +22°C° 0 mm 1 m/s 700 mmHg 56%
10:00 +23°C° 0 mm 2 m/s 700 mmHg 53%
11:00 +23°C° 0 mm 2 m/s 700 mmHg 50%
12:00 +24°C° 0 mm 3 m/s 700 mmHg 48%
13:00 +25°C° 0 mm 4 m/s 699 mmHg 45%
14:00 +25°C° 0 mm 3 m/s 699 mmHg 45%
15:00 +25°C° 0 mm 3 m/s 699 mmHg 46%
16:00 +25°C° 0 mm 3 m/s 699 mmHg 46%
17:00 +24°C° 0 mm 2 m/s 699 mmHg 52%
18:00 +23°C° 0 mm 1 m/s 699 mmHg 57%
19:00 +22°C° 0 mm 1 m/s 699 mmHg 63%
20:00 +21°C° 0 mm 1 m/s 699 mmHg 67%
21:00 +19°C° 0 mm 1 m/s 699 mmHg 72%
22:00 +17°C° 0 mm 2 m/s 699 mmHg 76%
23:00 +16°C° 0 mm 2 m/s 699 mmHg 79%

Depois de amanhã, 27 Julho, Terça-feira

Tempo Temperatura Precipitação Vento Pressão Humidade
00:00 +16°C° 0 mm 1 m/s 698 mmHg 81%
01:00 +15°C° 0 mm 1 m/s 698 mmHg 83%
02:00 +15°C° 0 mm 1 m/s 698 mmHg 86%
03:00 +14°C° 0 mm 1 m/s 698 mmHg 88%
04:00 +14°C° 0 mm 1 m/s 698 mmHg 90%
05:00 +16°C° 0 mm 2 m/s 698 mmHg 82%
06:00 +18°C° 0 mm 2 m/s 698 mmHg 73%
07:00 +19°C° 0 mm 2 m/s 699 mmHg 65%
08:00 +21°C° 0 mm 3 m/s 699 mmHg 60%
09:00 +22°C° 0 mm 3 m/s 698 mmHg 54%
10:00 +23°C° 0 mm 4 m/s 698 mmHg 49%
11:00 +25°C° 0 mm 4 m/s 698 mmHg 47%
12:00 +26°C° 0 mm 4 m/s 697 mmHg 45%
13:00 +27°C° 0 mm 4 m/s 697 mmHg 43%
14:00 +27°C° 0 mm 4 m/s 697 mmHg 44%
15:00 +26°C° 0 mm 4 m/s 696 mmHg 44%
16:00 +26°C° 0 mm 4 m/s 696 mmHg 45%
17:00 +25°C° 0.1 mm 3 m/s 696 mmHg 53%
18:00 +22°C° 0.1 mm 3 m/s 696 mmHg 61%
19:00 +21°C° 0.1 mm 2 m/s 696 mmHg 68%
20:00 +19°C° 0.1 mm 2 m/s 696 mmHg 74%
21:00 +18°C° 0.1 mm 2 m/s 696 mmHg 80%
22:00 +17°C° 0.1 mm 2 m/s 696 mmHg 86%
23:00 +16°C° 0 mm 2 m/s 696 mmHg 87%

28 Julho, Quarta-feira

Tempo Temperatura Precipitação Vento Pressão Humidade
00:00 +16°C° 0 mm 2 m/s 696 mmHg 88%
01:00 +15°C° 0 mm 1 m/s 696 mmHg 90%
02:00 +15°C° 0 mm 1 m/s 696 mmHg 90%
03:00 +15°C° 0 mm 1 m/s 695 mmHg 91%
04:00 +15°C° 0 mm 1 m/s 695 mmHg 91%
05:00 +16°C° 0 mm 1 m/s 696 mmHg 84%
06:00 +19°C° 0 mm 1 m/s 696 mmHg 78%
07:00 +21°C° 0 mm 1 m/s 696 mmHg 71%
08:00 +21°C° 0 mm 2 m/s 696 mmHg 64%
09:00 +24°C° 0 mm 2 m/s 696 mmHg 58%
10:00 +26°C° 0 mm 3 m/s 696 mmHg 51%
11:00 +27°C° 0 mm 2 m/s 695 mmHg 47%
12:00 +27°C° 0 mm 2 m/s 695 mmHg 44%
13:00 +28°C° 0 mm 2 m/s 695 mmHg 41%
14:00 +27°C° 0 mm 2 m/s 695 mmHg 44%
15:00 +26°C° 0 mm 2 m/s 694 mmHg 48%
16:00 +26°C° 0 mm 1 m/s 694 mmHg 52%
17:00 +25°C° 0 mm 1 m/s 694 mmHg 55%
18:00 +24°C° 0 mm 1 m/s 694 mmHg 57%
19:00 +23°C° 0 mm 1 m/s 694 mmHg 60%
20:00 +23°C° 0 mm 1 m/s 694 mmHg 61%
21:00 +22°C° 0 mm 1 m/s 694 mmHg 62%
22:00 +21°C° 0 mm 1 m/s 694 mmHg 63%
23:00 +21°C° 0 mm 1 m/s 694 mmHg 64%

29 Julho, Quinta-feira

Tempo Temperatura Precipitação Vento Pressão Humidade
00:00 +21°C° 0 mm 1 m/s 694 mmHg 66%
01:00 +20°C° 0 mm 1 m/s 694 mmHg 67%
02:00 +20°C° 0 mm 1 m/s 694 mmHg 69%
03:00 +19°C° 0 mm 1 m/s 693 mmHg 72%
04:00 +18°C° 0 mm 1 m/s 693 mmHg 74%
05:00 +20°C° 0 mm 1 m/s 694 mmHg 70%
06:00 +21°C° 0 mm 1 m/s 694 mmHg 67%
07:00 +22°C° 0 mm 1 m/s 694 mmHg 63%
08:00 +24°C° 0 mm 1 m/s 694 mmHg 57%
09:00 +25°C° 0 mm 1 m/s 694 mmHg 52%
10:00 +27°C° 0 mm 1 m/s 694 mmHg 46%
11:00 +28°C° 0 mm 1 m/s 694 mmHg 43%
12:00 +29°C° 0 mm 1 m/s 693 mmHg 39%
13:00 +29°C° 0 mm 1 m/s 693 mmHg 36%
14:00 +29°C° 0 mm 1 m/s 693 mmHg 39%
15:00 +28°C° 0 mm 1 m/s 693 mmHg 43%
16:00 +27°C° 0 mm 2 m/s 692 mmHg 47%
17:00 +25°C° 0 mm 2 m/s 693 mmHg 52%
18:00 +24°C° 0 mm 2 m/s 693 mmHg 56%
19:00 +23°C° 0 mm 2 m/s 693 mmHg 61%
20:00 +20°C° 0 mm 2 m/s 693 mmHg 67%
21:00 +19°C° 0 mm 2 m/s 693 mmHg 73%
22:00 +17°C° 0 mm 2 m/s 693 mmHg 79%
23:00 +17°C° 0 mm 2 m/s 693 mmHg 82%

30 Julho, Sexta-feira

Tempo Temperatura Precipitação Vento Pressão Humidade
00:00 +16°C° 0 mm 2 m/s 694 mmHg 85%
01:00 +15°C° 0 mm 2 m/s 694 mmHg 87%
02:00 +15°C° 0.1 mm 2 m/s 694 mmHg 89%
03:00 +15°C° 0.1 mm 2 m/s 694 mmHg 91%
04:00 +15°C° 0.1 mm 2 m/s 694 mmHg 93%
05:00 +15°C° 0 mm 2 m/s 695 mmHg 91%
06:00 +16°C° 0 mm 2 m/s 695 mmHg 88%
07:00 +16°C° 0 mm 2 m/s 695 mmHg 85%
08:00 +16°C° 0.1 mm 2 m/s 696 mmHg 83%
09:00 +17°C° 0.1 mm 3 m/s 696 mmHg 81%
10:00 +17°C° 0.1 mm 3 m/s 696 mmHg 78%
11:00 +17°C° 0.1 mm 4 m/s 697 mmHg 78%
12:00 +17°C° 0.1 mm 4 m/s 697 mmHg 77%
13:00 +17°C° 0.1 mm 4 m/s 697 mmHg 76%
14:00 +17°C° 0 mm 4 m/s 697 mmHg 74%
15:00 +18°C° 0 mm 4 m/s 697 mmHg 71%
16:00 +18°C° 0 mm 4 m/s 697 mmHg 69%
17:00 +17°C° 0 mm 3 m/s 697 mmHg 71%
18:00 +17°C° 0 mm 3 m/s 697 mmHg 73%
19:00 +16°C° 0 mm 3 m/s 697 mmHg 74%
20:00 +14°C° 0 mm 3 m/s 697 mmHg 80%
21:00 +14°C° 0 mm 2 m/s 697 mmHg 85%
22:00 +12°C° 0 mm 2 m/s 697 mmHg 90%
23:00 +12°C° 0 mm 2 m/s 697 mmHg 91%
Mostrar mais

Necessitamos do seu Consentimento

A Meteoprog e os seus Fornecedores de Serviços podem armazenar e aceder a dados pessoais como cookies, identificadores do dispositivo ou outras tecnologias semelhantes existentes no seu dispositivo e processar estes dados para personalizar conteúdos e anúncios, assim como funcionalidades nas redes sociais e análise de tráfego.

  • Armazenar e/ou aceder a informações no seu dispositivo

    Os cookies, identificadores do dispositivo ou outras informações podem ser armazenados ou acedidos no seu dispositivo, para os fins acima indicados.

  • Anúncios e conteúdos personalizados, medição de anúncios e conteúdos, dados sobre o público-alvo e desenvolvimento de produtos

    Os anúncios e os conteúdos podem ser personalizados com base num perfil. Podem ser adicionados dados adicionais para uma maior personalização dos anúncios e dos conteúdos. A eficácia dos anúncios e dos conteúdos pode ser medida. Podem ser obtidas informações sobre o público que visualizou os anúncios e os conteúdos. Estes dados podem ser usados para desenvolver ou melhorar sistemas, softwares ou a experiência do utilizador.

Ao clicar em "Eu concordo”, permitirá o uso de cookies, identificadores do dispositivo e web beacons mencionados ou outras tecnologias semelhantes. As configurações do navegador do seu dispositivo podem ser alteradas.

Para certos fins, podem ser invocados interesses legítimos ao invés de consentimento. Pode ler mais informação sobre este assunto na nossa Política de Privacidade e Cookies.